Location: Armidale
(30.5016°S, 151.6662°E)
Time: 08:20:35
(UTC+10:00)

N. Korean satellite - Pass Details

Date: 17 May 2021
Orbit: 450 x 500 km, 97.2° (Epoch: 18 June)

Event Time Altitude Azimuth Distance (km) Brightness Sun altitude
Rises 05:15:29 0° 343° (NNW) 2,469 10.1 -16.8°
Reaches altitude 10° 05:17:52 10° 326° (NW) 1,613 9.0 -16.3°
Enters shadow 05:18:22 13° 319° (NW) 1,461 8.7 -16.2°
